| time (UTC) | temp C | wind direction | speed KPH | gust KPH | rain 1hr cm | rain 24hr cm | rain mn cm | humidity % | barometer mb |
| 20260503211851 | 16 | 241 | 0.0 | 3.2 | 0.00 | 0.00 | 0.00 | 62 | 1005.0 |
| 20260503211348 | 16 | 212 | 1.6 | 3.2 | 0.00 | 0.00 | 0.00 | 64 | 1005.0 |
| 20260503210843 | 16 | 259 | 4.8 | 4.8 | 0.00 | 0.00 | 0.00 | 62 | 1004.8 |
| 20260503210341 | 16 | 214 | 1.6 | 4.8 | 0.00 | 0.00 | 0.00 | 62 | 1004.9 |
| 20260503205835 | 16 | 108 | 1.6 | 4.8 | 0.00 | 0.00 | 0.00 | 63 | 1004.8 |
| 20260503205332 | 16 | 212 | 0.0 | 3.2 | 0.00 | 0.00 | 0.00 | 63 | 1005.2 |
| 20260503204829 | 15 | 218 | 0.0 | 1.6 | 0.00 | 0.00 | 0.00 | 63 | 1005.2 |
| 20260503204326 | 15 | 199 | 3.2 | 3.2 | 0.00 | 0.00 | 0.00 | 63 | 1005.1 |
| 20260503203823 | 15 | 237 | 1.6 | 1.6 | 0.00 | 0.00 | 0.00 | 63 | 1005.1 |
| 20260503203321 | 16 | 191 | 1.6 | 3.2 | 0.00 | 0.00 | 0.00 | 64 | 1005.1 |
| 20260503202817 | 16 | 185 | 0.0 | 1.6 | 0.00 | 0.00 | 0.00 | 59 | 1005.2 |
| 20260503202316 | 16 | 61 | 3.2 | 3.2 | 0.00 | 0.00 | 0.00 | 59 | 1005.1 |
| 20260503201814 | 16 | 198 | 1.6 | 1.6 | 0.00 | 0.00 | 0.00 | 61 | 1005.2 |
| 20260503201310 | 16 | 297 | 3.2 | 4.8 | 0.00 | 0.00 | 0.00 | 61 | 1005.2 |
| 20260503200808 | 16 | 235 | 4.8 | 4.8 | 0.00 | 0.00 | 0.00 | 62 | 1005.4 |
| 20260503200303 | 16 | 202 | 1.6 | 8.0 | 0.00 | 0.00 | 0.00 | 64 | 1005.2 |
| 20260503195801 | 16 | 314 | 6.4 | 8.0 | 0.00 | 0.00 | 0.00 | 62 | 1005.1 |
| 20260503195257 | 16 | 321 | 1.6 | 3.2 | 0.00 | 0.00 | 0.00 | 63 | 1005.3 |
| 20260503194755 | 16 | 203 | 4.8 | 20.9 | 0.00 | 0.00 | 0.00 | 63 | 1005.2 |
| 20260503194250 | 16 | 200 | 0.0 | 3.2 | 0.00 | 0.00 | 0.00 | 65 | 1005.3 |
| 20260503193747 | 15 | 222 | 0.0 | 4.8 | 0.00 | 0.00 | 0.00 | 66 | 1005.4 |
| 20260503193243 | 15 | 202 | 0.0 | 8.0 | 0.00 | 0.00 | 0.00 | 64 | 1005.4 |
| 20260503192739 | 15 | 163 | 0.0 | 3.2 | 0.00 | 0.00 | 0.00 | 64 | 1005.3 |
| 20260503192234 | 15 | 305 | 3.2 | 3.2 | 0.00 | 0.00 | 0.00 | 63 | 1005.3 |
| 20260503191731 | 15 | 167 | 1.6 | 8.0 | 0.00 | 0.00 | 0.00 | 63 | 1005.4 |
| 20260503191228 | 15 | 255 | 3.2 | 3.2 | 0.00 | 0.00 | 0.00 | 63 | 1005.4 |
| 20260503190725 | 15 | 292 | 1.6 | 3.2 | 0.00 | 0.00 | 0.00 | 64 | 1005.5 |
| 20260503190222 | 15 | 197 | 0.0 | 1.6 | 0.00 | 0.00 | 0.00 | 64 | 1005.2 |
| 20260503185719 | 15 | 239 | 1.6 | 1.6 | 0.00 | 0.00 | 0.00 | 64 | 1005.5 |
| 20260503185214 | 15 | 223 | 0.0 | 0.0 | 0.00 | 0.00 | 0.00 | 64 | 1005.4 |
| 20260503184709 | 15 | 206 | 1.6 | 1.6 | 0.00 | 0.00 | 0.00 | 66 | 1005.5 |
| 20260503184206 | 15 | 183 | 0.0 | 3.2 | 0.00 | 0.00 | 0.00 | 65 | 1005.0 |
| 20260503183702 | 15 | 348 | 3.2 | 3.2 | 0.00 | 0.00 | 0.00 | 63 | 1005.4 |
| 20260503183200 | 15 | 207 | 0.0 | 1.6 | 0.00 | 0.00 | 0.00 | 67 | 1005.1 |
| 20260503182658 | 15 | 206 | 0.0 | 1.6 | 0.00 | 0.00 | 0.00 | 65 | 1005.6 |
| 20260503182156 | 15 | 302 | 1.6 | 4.8 | 0.00 | 0.00 | 0.00 | 65 | 1005.3 |
| 20260503181652 | 15 | 206 | 0.0 | 1.6 | 0.00 | 0.00 | 0.00 | 68 | 1005.2 |
| 20260503181149 | 15 | 48 | 3.2 | 4.8 | 0.00 | 0.00 | 0.00 | 66 | 1005.2 |
| 20260503180646 | 15 | 219 | 1.6 | 3.2 | 0.00 | 0.00 | 0.00 | 68 | 1005.3 |
| 20260503180144 | 15 | 207 | 0.0 | 1.6 | 0.00 | 0.00 | 0.00 | 69 | 1005.2 |
| 20260503175640 | 15 | 255 | 3.2 | 4.8 | 0.00 | 0.00 | 0.00 | 70 | 1005.4 |
| 20260503175132 | 15 | 335 | 1.6 | 1.6 | 0.00 | 0.00 | 0.00 | 71 | 1005.3 |
| 20260503174628 | 15 | 33 | 3.2 | 4.8 | 0.00 | 0.00 | 0.00 | 69 | 1005.3 |
| 20260503174126 | 15 | 185 | 0.0 | 1.6 | 0.00 | 0.00 | 0.00 | 69 | 1005.3 |
| 20260503173620 | 15 | 168 | 1.6 | 3.2 | 0.00 | 0.00 | 0.00 | 67 | 1005.3 |
| 20260503173117 | 15 | 198 | 0.0 | 3.2 | 0.00 | 0.00 | 0.00 | 69 | 1005.3 |
| 20260503172614 | 15 | 247 | 1.6 | 1.6 | 0.00 | 0.00 | 0.00 | 70 | 1005.3 |
| 20260503172112 | 13 | 190 | 0.0 | 1.6 | 0.00 | 0.00 | 0.00 | 70 | 1005.3 |
| 20260503171608 | 14 | 189 | 1.6 | 3.2 | 0.00 | 0.00 | 0.00 | 71 | 1005.5 |
| 20260503171106 | 13 | 211 | 0.0 | 3.2 | 0.00 | 0.00 | 0.00 | 76 | 1005.4 |
| 20260503170602 | 13 | 138 | 1.6 | 4.8 | 0.00 | 0.00 | 0.00 | 73 | 1005.2 |
| 20260503150948 | 12 | 201 | 0.0 | 0.0 | 0.00 | 0.00 | 0.00 | 90 | 1004.8 |
| 20260503150445 | 12 | 202 | 0.0 | 0.0 | 0.00 | 0.00 | 0.00 | 89 | 1004.8 |
| 20260503131338 | 11 | 191 | 0.0 | 0.0 | 0.00 | 0.00 | 0.00 | 93 | 1003.5 |
| 20260503130835 | 11 | 187 | 0.0 | 0.0 | 0.00 | 0.00 | 0.00 | 93 | 1003.7 |
| 20260503130333 | 11 | 187 | 0.0 | 0.0 | 0.00 | 0.00 | 0.00 | 93 | 1003.7 |
| 20260503110726 | 10 | 188 | 0.0 | 0.0 | 0.00 | 0.00 | 0.00 | 93 | 1003.5 |
| 20260503110224 | 10 | 150 | 0.0 | 0.0 | 0.00 | 0.00 | 0.00 | 93 | 1003.6 |
| 20260503100150 | 11 | 197 | 0.0 | 0.0 | 0.00 | 0.00 | 0.00 | 91 | 1003.4 |
| 20260503090109 | 11 | 189 | 0.0 | 0.0 | 0.00 | 0.00 | 0.00 | 87 | 1003.6 |
| 20260503081538 | 11 | 207 | 0.0 | 0.0 | 0.00 | 0.00 | 0.00 | 86 | 1004.2 |
| 20260503081036 | 11 | 202 | 0.0 | 0.0 | 0.00 | 0.00 | 0.00 | 86 | 1004.2 |
| 20260503080532 | 11 | 206 | 0.0 | 1.6 | 0.00 | 0.00 | 0.00 | 86 | 1004.1 |
| 20260503072506 | 11 | 195 | 0.0 | 1.6 | 0.00 | 0.00 | 0.00 | 86 | 1003.9 |
| 20260503072003 | 11 | 170 | 1.6 | 1.6 | 0.00 | 0.00 | 0.00 | 85 | 1004.0 |
| 20260503071500 | 11 | 186 | 0.0 | 3.2 | 0.00 | 0.00 | 0.00 | 85 | 1004.1 |
| 20260503070955 | 11 | 208 | 0.0 | 1.6 | 0.00 | 0.00 | 0.00 | 85 | 1004.0 |
| 20260503070453 | 11 | 201 | 1.6 | 1.6 | 0.00 | 0.00 | 0.00 | 85 | 1004.1 |
| 20260503054912 | 11 | 198 | 0.0 | 1.6 | 0.00 | 0.00 | 0.00 | 84 | 1004.3 |
| 20260503054408 | 11 | 198 | 0.0 | 1.6 | 0.00 | 0.00 | 0.00 | 84 | 1004.4 |
| 20260503053906 | 11 | 196 | 0.0 | 0.0 | 0.00 | 0.00 | 0.00 | 84 | 1004.4 |
| 20260503053404 | 11 | 182 | 0.0 | 1.6 | 0.00 | 0.00 | 0.00 | 84 | 1004.3 |
| 20260503052859 | 11 | 196 | 0.0 | 1.6 | 0.00 | 0.00 | 0.00 | 85 | 1004.2 |
| 20260503052357 | 11 | 209 | 0.0 | 1.6 | 0.00 | 0.00 | 0.00 | 84 | 1004.3 |
| 20260503051853 | 12 | 199 | 0.0 | 0.0 | 0.00 | 0.00 | 0.00 | 84 | 1004.5 |
| 20260503051349 | 12 | 202 | 0.0 | 0.0 | 0.00 | 0.00 | 0.00 | 84 | 1004.6 |
| 20260503050846 | 12 | 206 | 0.0 | 1.6 | 0.00 | 0.00 | 0.00 | 85 | 1004.5 |
| 20260503050343 | 12 | 190 | 0.0 | 0.0 | 0.00 | 0.00 | 0.00 | 83 | 1004.6 |
| 20260503045840 | 12 | 199 | 0.0 | 0.0 | 0.00 | 0.00 | 0.00 | 84 | 1004.6 |
| 20260503045338 | 12 | 196 | 0.0 | 0.0 | 0.00 | 0.00 | 0.00 | 84 | 1004.3 |
| 20260503044834 | 12 | 210 | 0.0 | 1.6 | 0.00 | 0.00 | 0.00 | 83 | 1004.5 |
| 20260503044331 | 12 | 207 | 0.0 | 1.6 | 0.00 | 0.00 | 0.00 | 83 | 1004.3 |
| 20260503043828 | 12 | 187 | 0.0 | 0.0 | 0.00 | 0.00 | 0.00 | 83 | 1004.4 |
| 20260503043325 | 12 | 210 | 1.6 | 1.6 | 0.00 | 0.00 | 0.00 | 84 | 1004.2 |
| 20260503042821 | 12 | 191 | 0.0 | 0.0 | 0.00 | 0.00 | 0.00 | 84 | 1004.2 |
| 20260503042318 | 12 | 185 | 0.0 | 3.2 | 0.00 | 0.00 | 0.00 | 83 | 1004.3 |
| 20260503041814 | 12 | 208 | 1.6 | 4.8 | 0.00 | 0.00 | 0.00 | 83 | 1004.2 |
| 20260503041312 | 12 | 205 | 0.0 | 0.0 | 0.00 | 0.00 | 0.00 | 83 | 1004.1 |
| 20260503040809 | 12 | 191 | 0.0 | 0.0 | 0.00 | 0.00 | 0.00 | 83 | 1004.2 |
| 20260503040307 | 12 | 216 | 3.2 | 3.2 | 0.00 | 0.00 | 0.00 | 82 | 1003.8 |
| 20260503035803 | 12 | 183 | 0.0 | 1.6 | 0.00 | 0.00 | 0.00 | 83 | 1004.1 |
| 20260503035301 | 12 | 168 | 0.0 | 1.6 | 0.00 | 0.00 | 0.00 | 83 | 1003.7 |
| 20260503034758 | 12 | 197 | 1.6 | 3.2 | 0.00 | 0.00 | 0.00 | 82 | 1003.8 |
| 20260503034255 | 12 | 196 | 1.6 | 4.8 | 0.00 | 0.00 | 0.00 | 82 | 1003.9 |
| 20260503033752 | 12 | 177 | 0.0 | 0.0 | 0.00 | 0.00 | 0.00 | 82 | 1003.6 |
| 20260503033250 | 12 | 176 | 1.6 | 1.6 | 0.00 | 0.00 | 0.00 | 82 | 1003.5 |
| 20260503032748 | 12 | 183 | 0.0 | 0.0 | 0.00 | 0.00 | 0.00 | 82 | 1003.6 |
| 20260503032246 | 12 | 334 | 0.0 | 3.2 | 0.00 | 0.00 | 0.00 | 81 | 1003.6 |
| 20260503031742 | 12 | 186 | 0.0 | 1.6 | 0.00 | 0.00 | 0.00 | 83 | 1003.4 |
| 20260503031241 | 12 | 188 | 0.0 | 0.0 | 0.00 | 0.00 | 0.00 | 83 | 1003.3 |
| 20260503030737 | 12 | 206 | 1.6 | 3.2 | 0.00 | 0.00 | 0.00 | 82 | 1003.4 |
| 20260503030233 | 12 | 350 | 3.2 | 3.2 | 0.00 | 0.00 | 0.00 | 81 | 1003.4 |
| 20260503025725 | 12 | 178 | 0.0 | 3.2 | 0.00 | 0.00 | 0.00 | 82 | 1003.3 |
| 20260503025222 | 13 | 219 | 1.6 | 3.2 | 0.00 | 0.00 | 0.00 | 82 | 1003.1 |
| 20260503024719 | 13 | 186 | 0.0 | 1.6 | 0.00 | 0.00 | 0.00 | 82 | 1003.4 |
| 20260503024216 | 13 | 174 | 0.0 | 1.6 | 0.00 | 0.00 | 0.00 | 81 | 1003.1 |
| 20260503023713 | 13 | 193 | 0.0 | 3.2 | 0.00 | 0.00 | 0.00 | 81 | 1003.2 |
| 20260503023209 | 13 | 198 | 0.0 | 1.6 | 0.00 | 0.00 | 0.00 | 82 | 1002.9 |
| 20260503022706 | 13 | 166 | 1.6 | 4.8 | 0.00 | 0.00 | 0.00 | 81 | 1003.1 |
| 20260503022205 | 13 | 186 | 0.0 | 1.6 | 0.00 | 0.00 | 0.00 | 81 | 1003.2 |
| 20260503021703 | 13 | 165 | 3.2 | 4.8 | 0.00 | 0.00 | 0.00 | 80 | 1003.0 |
| 20260503021159 | 13 | 144 | 3.2 | 4.8 | 0.00 | 0.00 | 0.00 | 79 | 1003.0 |
| 20260503020656 | 13 | 192 | 0.0 | 0.0 | 0.00 | 0.00 | 0.00 | 79 | 1003.2 |
| 20260503020154 | 13 | 215 | 0.0 | 4.8 | 0.00 | 0.00 | 0.00 | 80 | 1003.0 |
| 20260503015650 | 13 | 125 | 1.6 | 3.2 | 0.00 | 0.00 | 0.00 | 79 | 1003.0 |
| 20260503015147 | 14 | 210 | 1.6 | 8.0 | 0.00 | 0.00 | 0.00 | 78 | 1003.1 |
| 20260503014643 | 14 | 224 | 3.2 | 4.8 | 0.00 | 0.00 | 0.00 | 78 | 1003.3 |
| 20260503014141 | 14 | 144 | 4.8 | 11.3 | 0.00 | 0.00 | 0.00 | 77 | 1003.0 |
| 20260503013638 | 15 | 262 | 3.2 | 3.2 | 0.00 | 0.00 | 0.00 | 75 | 1003.0 |
| 20260503013136 | 15 | 198 | 0.0 | 4.8 | 0.00 | 0.00 | 0.00 | 76 | 1002.8 |
| 20260503012633 | 15 | 198 | 0.0 | 0.0 | 0.00 | 0.00 | 0.00 | 75 | 1003.1 |
| 20260503012130 | 15 | 207 | 0.0 | 3.2 | 0.00 | 0.00 | 0.00 | 74 | 1003.1 |
| 20260503011626 | 16 | 80 | 0.0 | 9.7 | 0.00 | 0.00 | 0.00 | 73 | 1003.1 |
| 20260503011123 | 16 | 150 | 0.0 | 4.8 | 0.00 | 0.00 | 0.00 | 71 | 1003.0 |
| 20260503010619 | 16 | 193 | 0.0 | 1.6 | 0.00 | 0.00 | 0.00 | 71 | 1003.0 |
| 20260503010117 | 17 | 155 | 1.6 | 1.6 | 0.00 | 0.00 | 0.00 | 71 | 1003.0 |
| 20260503005614 | 17 | 153 | 0.0 | 3.2 | 0.00 | 0.00 | 0.00 | 69 | 1003.1 |
| 20260503005111 | 17 | 293 | 0.0 | 1.6 | 0.00 | 0.00 | 0.00 | 68 | 1003.0 |
| 20260503004607 | 17 | 199 | 0.0 | 3.2 | 0.00 | 0.00 | 0.00 | 70 | 1003.0 |
| 20260503004106 | 17 | 198 | 0.0 | 4.8 | 0.00 | 0.00 | 0.00 | 70 | 1003.0 |
| 20260503003602 | 17 | 189 | 1.6 | 3.2 | 0.00 | 0.00 | 0.00 | 70 | 1002.9 |
| 20260503003059 | 17 | 298 | 1.6 | 1.6 | 0.00 | 0.00 | 0.00 | 69 | 1002.9 |
| 20260503002556 | 17 | 206 | 0.0 | 3.2 | 0.00 | 0.00 | 0.00 | 69 | 1003.1 |
| 20260503002053 | 17 | 220 | 3.2 | 4.8 | 0.00 | 0.00 | 0.00 | 68 | 1002.9 |
| 20260503001543 | 17 | 230 | 4.8 | 9.7 | 0.00 | 0.00 | 0.00 | 69 | 1003.0 |
| 20260503001041 | 19 | 229 | 0.0 | 3.2 | 0.00 | 0.00 | 0.00 | 64 | 1002.9 |
| 20260503000538 | 19 | 255 | 3.2 | 8.0 | 0.00 | 0.00 | 0.00 | 64 | 1002.9 |
| 20260503000035 | 19 | 237 | 0.0 | 4.8 | 0.00 | 0.00 | 0.00 | 65 | 1002.9 |
| 20260502235531 | 19 | 6 | 3.2 | 3.2 | 0.00 | 0.00 | 0.00 | 63 | 1003.1 |
| 20260502235030 | 18 | 128 | 1.6 | 9.7 | 0.00 | 0.00 | 0.00 | 65 | 1002.9 |
| 20260502234525 | 19 | 144 | 0.0 | 4.8 | 0.00 | 0.00 | 0.00 | 64 | 1002.9 |
| 20260502234023 | 20 | 238 | 4.8 | 9.7 | 0.00 | 0.00 | 0.00 | 62 | 1002.9 |
| 20260502233523 | 20 | 187 | 1.6 | 12.9 | 0.00 | 0.00 | 0.00 | 65 | 1002.8 |
| 20260502233021 | 20 | 224 | 1.6 | 3.2 | 0.00 | 0.00 | 0.00 | 63 | 1002.8 |
| 20260502232517 | 21 | 190 | 3.2 | 4.8 | 0.00 | 0.00 | 0.00 | 61 | 1002.8 |
| 20260502232014 | 21 | 144 | 1.6 | 4.8 | 0.00 | 0.00 | 0.00 | 60 | 1003.0 |
| 20260502231511 | 21 | 233 | 1.6 | 3.2 | 0.00 | 0.00 | 0.00 | 60 | 1002.8 |
| 20260502231009 | 21 | 218 | 0.0 | 4.8 | 0.00 | 0.00 | 0.00 | 61 | 1003.1 |
| 20260502230507 | 20 | 253 | 3.2 | 3.2 | 0.00 | 0.00 | 0.00 | 61 | 1003.1 |
| 20260502230006 | 20 | 248 | 4.8 | 8.0 | 0.00 | 0.00 | 0.00 | 61 | 1003.2 |
| 20260502225501 | 20 | 211 | 1.6 | 3.2 | 0.00 | 0.00 | 0.00 | 61 | 1003.2 |
| 20260502224958 | 20 | 184 | 1.6 | 8.0 | 0.00 | 0.00 | 0.00 | 62 | 1003.5 |
| 20260502224454 | 21 | 57 | 4.8 | 4.8 | 0.00 | 0.00 | 0.00 | 59 | 1003.5 |
| 20260502223951 | 20 | 81 | 0.0 | 3.2 | 0.00 | 0.00 | 0.00 | 60 | 1003.8 |
| 20260502223449 | 21 | 224 | 0.0 | 3.2 | 0.00 | 0.00 | 0.00 | 57 | 1003.9 |
| 20260502222947 | 21 | 213 | 0.0 | 1.6 | 0.00 | 0.00 | 0.00 | 60 | 1003.7 |
| 20260502222444 | 20 | 163 | 3.2 | 8.0 | 0.00 | 0.00 | 0.00 | 59 | 1003.9 |
| 20260502221939 | 20 | 157 | 0.0 | 8.0 | 0.00 | 0.00 | 0.00 | 61 | 1003.9 |
| 20260502221436 | 21 | 53 | 4.8 | 8.0 | 0.00 | 0.00 | 0.00 | 58 | 1004.1 |
| 20260502220933 | 20 | 23 | 0.0 | 8.0 | 0.00 | 0.00 | 0.00 | 60 | 1004.1 |
| 20260502220429 | 20 | 315 | 1.6 | 4.8 | 0.00 | 0.00 | 0.00 | 58 | 1004.5 |
| 20260502215925 | 20 | 41 | 0.0 | 3.2 | 0.00 | 0.00 | 0.00 | 60 | 1004.4 |
| 20260502215423 | 20 | 274 | 3.2 | 4.8 | 0.00 | 0.00 | 0.00 | 59 | 1004.6 |
| 20260502214920 | 20 | 228 | 0.0 | 4.8 | 0.00 | 0.00 | 0.00 | 63 | 1004.5 |
| 20260502214416 | 20 | 314 | 3.2 | 3.2 | 0.00 | 0.00 | 0.00 | 61 | 1004.7 |
| 20260502213914 | 20 | 237 | 4.8 | 8.0 | 0.00 | 0.00 | 0.00 | 62 | 1004.5 |
| 20260502213410 | 19 | 203 | 1.6 | 4.8 | 0.00 | 0.00 | 0.00 | 63 | 1004.7 |
| 20260502212909 | 18 | 251 | 3.2 | 4.8 | 0.00 | 0.00 | 0.00 | 67 | 1004.5 |
| 20260502212408 | 18 | 225 | 4.8 | 4.8 | 0.00 | 0.00 | 0.00 | 68 | 1004.8 |
| 20260502211904 | 18 | 239 | 1.6 | 4.8 | 0.00 | 0.00 | 0.00 | 66 | 1004.7 |